Terminal Aerodrome Forecast
Issued by NWS

Home | Current Version | Previous Version | Text Only | Print | Product List | Glossary On
Versions: 1 2 3 4 5 6 7 8 9 10 11 12 13 14 15 16 17 18 19 20 21 22 23 24 25 26 27 28 29 30 31 32 33 34 35 36 37 38 39 40 41 42 43 44 45 46 47 48 49 50
000
FTUS43 KMKX 020228 AAA
TAFUES
TAF AMD
KUES 020228Z 0202/0224 36015G24KT 1 1/2SM -SN BLSN BKN007 OVC015
     FM020500 35015G24KT 4SM -SN SCT010 OVC025
     FM020700 36014G24KT P6SM OVC045
     FM021000 34012G20KT P6SM SCT070
     FM021400 32008KT P6SM SCT200
     FM022000 27008KT P6SM FEW250=

USA.gov is the U.S. government's official web portal to all federal, state and local government web resources and services.